Theta_e
330 334 339 345 347 347 346 348 351 351 350 350 354 353 352 356 355 357 357 358 358 355 354 352 353 352 353 353 351 353 353 354 354 350 350 352 352 351 351 351 350 349 348 346 345 344 343 344 344 345 346 345 344 344 344 343 342 341 339 335 327 326 334 341 342 342 343 344 345 344 342 341 341 341 342 342 341 341 342 342 342 342 343 341 340 342 344 342 342 343 344 344 344 343 343 344 343
336 342 345 347 346 348 350 349 350 352 352 348 352 353 353 357 356 357 357 358 358 354 352 352 353 352 352 351 350 351 353 354 355 355 353 352 352 352 351 351 351 351 349 346 345 344 343 343 344 344 344 344 343 343 343 342 341 340 338 331 326 330 338 340 342 343 344 344 344 343 342 341 341 342 342 342 341 341 342 342 342 343 344 342 341 343 343 342 341 343 343 343 343 343 344 344 343
345 346 347 347 348 350 353 353 351 349 348 348 350 355 356 357 357 356 358 358 356 353 352 352 352 354 353 351 351 350 352 354 355 354 354 353 353 353 351 351 351 351 351 349 348 345 342 343 344 343 342 342 342 342 342 341 341 339 334 327 327 335 339 341 343 344 344 345 344 341 340 341 342 342 341 341 340 341 341 341 342 343 343 340 342 343 342 342 342 342 343 343 343 343 344 344 343
347 346 347 348 351 352 354 355 355 352 347 347 349 355 358 357 357 357 359 357 353 352 353 354 354 355 354 350 351 352 353 354 354 354 354 354 353 352 352 352 351 352 351 352 351 346 341 341 342 341 341 341 341 341 341 340 338 334 328 325 330 338 341 342 342 344 345 345 343 339 339 341 342 342 341 341 340 341 341 341 343 343 342 340 342 343 342 342 343 343 343 343 343 342 343 343 342
347 346 347 351 354 354 355 355 358 357 350 348 349 355 358 357 357 357 357 354 352 353 354 356 355 355 354 352 351 352 353 353 353 353 354 353 353 352 352 352 351 351 351 352 352 345 339 340 339 341 342 342 341 340 339 337 335 332 327 327 335 341 342 342 342 344 345 344 342 340 340 341 342 342 341 341 341 341 341 341 342 343 341 341 343 343 342 343 343 343 343 342 342 342 343 343 343
348 347 348 352 355 355 355 354 356 358 356 355 354 357 358 357 357 357 356 353 354 354 354 354 353 353 353 352 352 352 352 353 353 353 354 353 352 353 352 352 351 350 350 351 350 342 338 339 339 342 343 342 341 341 340 339 337 335 330 331 339 343 343 342 343 344 344 344 341 340 342 341 341 341 341 340 340 341 341 340 342 343 343 342 343 343 343 344 343 343 343 342 341 342 343 343 343
349 349 352 354 355 355 356 354 356 359 356 358 357 356 358 359 359 357 356 354 354 355 353 353 352 352 351 351 351 352 352 353 353 353 353 352 352 352 352 352 352 352 351 351 347 340 338 338 339 341 340 340 341 342 343 342 340 337 333 334 341 343 342 343 343 344 343 343 341 341 343 342 342 341 341 341 340 340 340 341 342 342 343 343 343 344 344 343 343 343 342 341 341 342 343 343 343
351 353 354 355 356 356 357 356 356 358 356 357 357 356 357 359 360 357 355 354 354 355 354 353 353 353 351 351 351 351 352 353 353 353 352 352 352 351 351 351 353 353 352 351 346 339 338 337 340 341 339 340 342 342 343 343 339 336 334 337 342 342 342 343 344 344 343 343 343 342 343 343 343 341 341 340 340 340 340 342 342 341 343 343 344 344 344 343 343 342 342 342 343 343 343 343 341
353 355 355 356 357 356 357 356 355 357 358 357 357 358 358 359 360 357 355 355 355 355 355 352 353 354 353 352 352 352 352 354 354 353 353 352 351 351 351 350 350 351 351 351 344 340 341 339 342 342 342 342 342 342 343 341 337 337 338 341 343 342 343 343 343 343 344 343 343 342 342 342 342 341 341 340 340 340 341 343 342 342 342 343 343 343 343 343 343 343 343 343 343 343 343 342 340
354 355 355 356 357 354 354 354 356 358 358 358 358 358 359 358 359 359 357 356 356 355 354 353 352 353 352 353 353 352 353 354 353 353 353 351 351 351 351 349 349 349 350 349 344 341 342 341 342 342 342 341 340 342 341 337 337 341 342 343 344 344 343 343 343 344 344 343 342 341 341 341 341 340 340 341 341 341 342 343 342 342 343 343 342 343 343 343 343 343 343 342 343 342 341 340 340
356 356 355 355 355 353 351 351 356 359 358 358 358 358 358 358 358 359 358 357 356 354 353 353 353 354 354 354 353 352 352 353 352 352 352 351 351 351 351 350 349 349 349 348 346 342 341 342 342 342 341 340 340 339 336 335 339 343 343 343 345 344 343 343 342 343 344 343 341 341 341 341 341 340 340 341 341 341 342 342 342 342 342 342 341 342 343 344 344 343 343 342 342 341 341 340 340
356 354 355 354 353 354 354 351 356 360 359 358 358 358 356 357 359 358 358 357 355 354 354 353 353 354 353 354 353 351 352 351 352 351 351 351 351 351 351 349 348 349 351 351 348 343 342 342 342 342 338 335 335 333 335 339 342 344 344 344 344 344 344 343 342 342 342 342 341 341 341 342 341 339 340 340 342 342 342 342 343 342 341 341 341 342 343 344 344 343 343 343 342 341 340 339 339
356 355 356 355 355 357 355 352 358 361 359 358 358 359 357 357 360 359 357 357 355 355 354 353 353 353 352 353 353 351 350 351 351 351 351 350 350 350 350 349 348 350 352 352 349 344 342 342 342 340 335 333 333 335 339 343 343 344 345 344 342 344 344 343 342 342 342 342 342 341 341 341 340 339 339 341 342 342 342 342 343 343 341 341 341 341 341 342 343 343 343 342 341 340 339 338 338
355 356 356 357 358 356 354 354 357 357 358 359 359 359 357 358 359 359 358 356 356 355 354 354 353 353 353 353 353 351 350 351 351 350 350 349 349 349 349 348 349 351 351 349 346 343 343 346 345 338 336 339 340 342 344 345 344 345 345 343 342 344 344 343 343 344 343 342 341 342 341 340 340 340 340 342 342 341 341 342 343 342 341 340 340 341 341 341 341 341 341 340 340 339 339 339 338
354 356 356 358 357 354 354 355 355 354 355 358 358 358 357 357 358 359 359 358 357 354 354 354 353 353 351 352 352 351 351 351 350 350 349 349 349 350 350 349 349 350 349 347 345 344 344 348 348 341 342 346 344 345 345 345 345 344 344 343 342 343 344 344 344 344 343 342 342 342 342 341 341 341 341 342 342 341 342 341 341 341 341 340 340 340 340 340 340 339 339 339 339 340 339 339 337
354 355 356 356 354 354 354 354 354 352 355 357 357 357 356 357 358 358 357 358 358 354 354 353 353 353 350 351 352 351 351 351 350 349 349 349 350 351 352 351 350 349 348 348 346 346 346 348 349 345 346 346 344 346 345 344 345 343 344 344 342 342 343 344 344 344 342 342 342 342 343 343 343 343 342 343 341 341 342 341 340 340 341 340 340 339 340 340 340 339 339 339 339 340 339 338 336
355 354 357 354 352 355 356 355 354 353 355 358 357 356 357 357 358 358 358 359 357 354 354 353 353 353 350 351 352 352 352 351 351 350 349 349 350 351 351 351 351 350 349 350 349 349 348 349 350 347 346 345 345 346 345 343 344 344 345 345 343 342 343 343 343 343 343 342 342 342 344 344 343 344 343 343 341 341 341 341 340 339 339 339 339 339 339 339 339 339 338 338 338 338 338 337 338
355 355 356 354 351 355 356 357 354 355 357 358 358 357 357 358 359 360 359 358 356 356 355 354 354 353 350 351 352 352 352 351 351 350 350 350 350 350 350 350 350 351 351 350 350 350 349 350 351 349 346 345 347 348 346 345 344 343 344 345 343 342 342 341 342 344 342 341 341 342 344 344 344 344 343 344 343 341 341 341 340 339 339 339 338 338 338 338 338 338 337 337 335 336 336 335 337
354 356 354 355 352 352 356 356 356 356 358 359 359 358 357 358 360 360 359 357 356 356 355 354 354 352 351 352 352 352 352 351 350 350 350 350 350 349 349 350 349 351 352 350 350 350 349 350 352 350 347 346 347 348 347 347 347 343 343 343 342 342 341 340 341 342 342 341 340 340 343 344 344 343 343 344 342 341 340 340 340 340 339 338 337 336 336 338 338 338 337 336 336 338 339 338 339
354 355 355 353 351 349 352 357 357 357 358 360 359 358 358 358 358 358 358 357 356 355 355 355 354 352 352 352 352 352 352 350 350 350 350 350 349 348 348 349 350 350 350 350 350 350 348 351 353 350 348 346 346 347 346 348 350 347 344 341 339 341 342 341 341 340 341 341 340 339 340 342 342 343 342 342 342 342 340 339 340 340 339 337 336 337 338 339 339 338 338 339 341 342 343 343 344
354 353 353 350 350 348 347 353 357 357 358 358 359 358 358 356 356 357 357 357 357 356 355 354 353 352 352 352 352 351 350 350 350 349 349 350 349 347 347 348 349 348 349 350 350 349 348 352 353 347 348 349 347 347 348 348 351 350 347 344 341 341 341 341 340 339 342 342 340 339 339 340 342 343 342 342 344 343 341 341 341 340 340 340 340 341 340 340 341 340 340 343 344 344 344 343 343
352 352 352 350 349 347 346 348 353 356 357 358 359 358 357 357 356 357 356 356 357 356 354 353 353 352 352 351 351 350 350 349 349 349 349 350 348 346 346 346 347 346 347 349 349 347 348 353 351 347 349 351 349 349 349 349 348 348 348 348 346 346 345 343 341 340 341 341 342 341 338 339 341 343 343 343 344 344 344 345 343 342 342 342 343 344 343 343 344 344 344 345 345 344 343 343 343
353 354 349 348 348 345 346 344 346 354 358 359 358 357 358 358 357 356 356 357 356 355 354 353 353 351 351 350 350 350 349 349 348 348 348 348 346 345 345 345 345 346 347 348 348 346 349 353 350 350 351 350 351 351 350 350 349 350 349 349 350 351 350 348 347 345 342 343 345 345 344 343 343 343 343 343 343 345 347 346 344 343 343 343 344 345 345 346 347 347 347 346 346 346 345 344 344
352 353 348 346 346 344 344 341 343 351 358 359 358 357 359 358 357 356 357 359 356 353 353 352 352 350 350 350 349 349 348 348 348 347 347 346 345 344 344 344 344 346 347 347 346 346 350 352 350 352 351 349 351 352 352 352 352 351 349 351 351 350 351 350 349 348 346 347 348 347 347 347 347 345 345 344 343 347 349 346 346 345 345 346 346 347 347 346 347 347 348 347 347 348 347 346 346
348 349 349 347 344 343 342 341 342 349 357 359 358 357 358 358 357 358 358 358 356 353 352 351 351 350 350 350 349 348 347 348 347 346 345 345 344 343 343 344 344 346 347 346 345 347 350 350 351 352 349 348 351 352 353 353 353 352 351 352 350 349 352 350 349 349 348 349 349 349 350 349 350 350 349 348 347 348 349 348 348 347 347 348 348 349 348 348 348 348 348 348 349 349 348 348 348
347 347 349 347 342 342 342 343 342 349 357 357 357 356 358 358 357 358 358 356 356 354 352 351 350 350 350 349 348 347 348 348 347 346 344 344 344 343 344 344 343 345 346 346 346 347 350 350 351 352 349 349 351 352 354 354 353 352 353 353 350 352 353 350 350 350 349 348 348 350 352 351 351 352 350 349 348 349 350 350 349 349 349 349 349 350 349 349 350 349 350 350 349 349 349 349 348
347 346 348 344 340 342 344 344 344 351 356 356 357 356 357 357 356 358 357 356 356 353 352 351 350 350 349 349 348 347 347 347 346 345 344 344 344 344 344 344 343 344 344 345 346 348 349 348 350 352 349 348 350 353 353 352 352 352 352 352 352 353 351 350 351 350 350 348 345 346 349 352 351 350 348 347 348 349 350 350 350 350 350 348 349 351 351 350 350 350 350 350 350 350 350 350 348
345 344 344 340 339 344 345 344 348 353 354 354 357 357 358 356 355 358 357 355 355 353 353 352 351 351 349 349 348 347 347 346 346 345 344 345 345 345 345 344 343 343 343 345 348 348 347 347 349 352 349 347 349 352 351 350 351 349 349 351 353 350 349 351 351 350 350 346 343 344 346 351 350 347 346 348 349 350 351 350 350 350 350 351 350 350 350 350 348 347 349 350 351 351 350 350 349
344 343 341 340 339 343 346 347 351 352 353 355 354 353 355 354 354 357 356 354 355 354 354 353 352 351 349 349 349 349 347 346 347 345 345 345 345 346 345 345 344 343 343 345 347 347 347 347 350 352 348 344 348 351 350 349 350 348 349 350 349 347 349 351 350 350 347 343 343 343 343 345 345 343 345 348 350 350 351 351 351 350 351 351 350 348 348 349 347 346 349 351 351 351 350 350 349
342 342 340 340 338 342 348 347 352 353 353 355 354 354 355 354 354 357 357 356 356 354 354 354 353 352 350 349 349 349 348 347 347 345 345 346 345 345 345 344 344 344 343 345 346 346 346 347 350 351 347 343 347 351 350 349 350 349 350 349 346 348 350 350 349 347 343 342 343 342 341 340 340 341 345 350 351 350 350 351 351 351 351 349 349 349 348 350 350 349 351 350 351 350 350 350 348
340 340 339 341 334 339 348 345 352 353 352 355 354 352 354 354 355 357 356 355 355 355 354 354 353 352 351 350 350 349 349 348 347 346 345 346 346 345 345 344 344 344 344 345 345 346 347 347 349 349 347 346 347 349 349 349 350 350 350 349 347 349 350 350 349 347 345 345 344 341 341 340 339 340 344 351 353 350 350 351 351 350 350 351 350 350 350 350 351 352 351 350 351 351 349 350 350
338 336 335 338 333 339 349 345 352 353 352 357 353 348 351 354 355 356 356 355 354 355 355 354 354 353 352 351 350 349 349 349 347 347 346 346 346 345 345 344 344 345 344 345 345 346 348 348 349 348 346 348 347 346 348 348 349 350 350 349 348 349 350 350 349 349 349 348 346 343 341 342 342 342 343 350 353 352 350 350 351 347 349 352 349 349 351 350 351 352 352 351 352 351 350 350 351
336 336 331 334 332 338 344 344 352 353 352 357 352 348 351 355 356 355 355 356 355 354 355 355 355 354 353 352 350 349 349 349 348 347 346 346 346 345 346 344 344 345 344 345 345 346 348 347 348 347 347 348 346 344 346 346 347 349 349 349 349 350 351 350 350 351 350 351 350 344 341 343 343 342 342 348 353 353 351 351 350 347 351 351 345 349 351 350 350 349 350 353 353 352 351 350 351
331 335 332 333 334 334 338 343 351 351 349 352 351 351 353 353 356 355 355 357 356 355 355 355 356 355 355 353 351 349 349 349 348 348 347 347 346 345 346 345 345 346 345 346 346 346 348 346 347 348 348 348 344 341 344 345 346 347 349 350 349 351 352 351 351 351 351 352 352 344 342 344 343 342 342 346 352 353 352 353 351 350 352 347 346 352 352 351 351 347 348 351 352 354 352 350 351
327 331 330 332 334 332 336 341 347 350 349 351 349 353 357 354 355 356 355 355 355 356 354 355 356 355 356 354 351 350 349 349 349 348 348 347 347 346 346 346 346 346 345 346 346 346 347 346 347 348 348 348 344 340 342 345 345 346 350 350 349 351 353 351 351 351 351 352 351 344 343 345 343 343 343 344 351 354 352 354 352 350 351 347 349 353 351 352 351 351 352 348 348 353 353 352 352
329 332 331 330 330 329 337 341 345 349 349 352 351 351 358 356 354 355 353 354 356 356 356 355 355 354 355 355 352 351 350 350 349 349 348 347 347 346 347 346 346 346 345 346 347 347 348 347 348 349 349 349 344 339 343 346 347 348 350 351 349 352 353 352 352 351 352 353 350 345 344 345 344 343 343 342 347 353 354 353 349 348 350 348 351 354 353 351 348 351 351 346 351 354 352 352 352
334 334 331 332 329 328 336 342 344 347 345 351 353 350 355 355 353 354 354 354 356 356 356 357 354 353 354 353 352 351 351 350 349 348 347 347 346 346 347 347 346 346 345 348 348 348 349 348 348 348 348 349 345 342 345 349 350 350 351 351 350 351 352 352 352 351 352 353 348 346 346 344 344 344 344 343 343 348 352 350 346 347 351 349 351 354 352 349 346 349 348 347 354 356 353 352 351
335 333 331 331 330 330 336 339 340 344 344 345 351 352 351 354 351 353 355 354 355 355 356 357 356 354 353 352 352 352 352 351 349 348 348 347 346 346 347 347 346 346 346 348 349 349 349 349 349 349 348 348 347 346 348 350 351 350 350 351 350 351 352 352 353 352 353 352 346 346 347 345 345 345 345 344 342 344 347 346 343 345 350 347 347 349 347 346 346 348 351 353 354 354 354 353 350
335 333 331 328 330 332 332 335 336 338 341 340 343 348 348 350 350 352 353 351 352 354 356 357 356 356 354 354 353 352 353 352 350 349 348 347 347 347 347 347 346 346 347 348 349 349 349 350 350 350 349 348 348 348 348 350 351 351 352 351 351 351 352 352 353 352 353 352 347 345 347 347 347 347 346 345 344 344 345 346 344 344 345 345 344 345 345 345 344 346 352 355 354 353 353 353 352
334 333 329 327 331 330 325 330 334 335 336 338 340 340 343 349 349 348 348 347 347 349 353 357 357 357 356 355 354 354 353 352 351 349 349 348 347 348 348 348 347 346 348 348 349 349 349 350 348 348 349 348 348 346 346 350 350 350 353 353 354 353 352 353 353 353 353 353 350 345 345 345 346 348 347 346 347 345 344 346 348 346 344 344 343 342 345 347 346 350 354 352 352 353 351 352 352
333 334 330 328 331 330 328 330 332 335 333 336 339 333 334 344 345 344 345 344 344 345 349 352 356 357 356 356 355 356 355 352 352 351 349 349 348 349 350 349 347 346 348 348 348 349 348 351 348 345 347 347 346 341 342 348 347 346 349 352 355 354 353 354 353 353 353 354 353 349 345 343 345 349 347 348 351 346 343 346 347 346 345 344 345 347 351 352 351 354 353 350 352 353 352 353 353
329 333 332 331 332 331 332 333 330 329 327 332 335 327 328 336 340 342 343 343 344 346 347 350 356 357 354 356 356 356 356 353 353 352 350 349 349 350 351 351 348 346 348 348 349 349 348 351 349 343 344 346 344 337 337 344 341 340 344 348 353 354 354 354 353 353 353 353 354 352 349 344 344 349 347 348 350 345 344 346 345 346 347 344 347 352 353 352 352 354 352 352 354 352 352 354 353
323 328 332 332 334 333 331 331 328 322 323 332 333 327 325 329 335 339 341 343 345 346 348 351 356 357 355 355 356 356 357 355 354 353 351 350 350 351 352 352 349 346 348 348 348 349 349 351 349 341 342 346 345 336 335 340 339 339 342 347 352 354 354 354 352 353 352 352 353 352 353 349 345 350 351 347 346 345 344 346 346 348 350 348 345 349 353 353 354 355 353 353 354 348 346 353 355
322 327 331 332 333 334 332 330 327 324 326 331 331 330 325 325 335 343 343 347 349 348 348 351 355 356 356 356 356 357 356 355 354 354 353 351 351 352 352 352 349 347 348 347 348 349 350 352 347 339 340 344 345 339 335 338 339 339 341 348 352 352 353 353 352 353 351 351 353 352 354 352 345 350 355 348 344 346 344 345 346 346 352 353 348 349 354 355 354 352 349 347 347 344 344 351 355
326 330 330 331 333 334 333 331 327 328 327 323 326 329 324 324 335 343 344 346 349 351 349 351 352 352 355 355 357 357 354 353 355 355 353 352 352 352 352 352 349 347 347 347 348 348 351 353 346 338 339 341 342 339 335 336 339 339 339 346 352 351 351 351 351 352 351 351 353 352 354 353 346 346 353 350 344 346 345 345 346 344 348 352 351 354 356 354 351 346 344 346 346 346 345 347 350
329 332 330 331 332 333 334 331 327 327 324 320 323 325 323 326 334 337 343 345 347 351 348 350 351 351 352 352 355 356 353 353 355 355 354 353 353 352 352 352 349 348 348 348 349 349 352 354 347 338 339 340 339 338 336 334 336 337 337 343 350 351 351 351 350 351 351 351 352 352 351 353 351 346 348 347 342 345 345 345 346 344 348 352 353 356 357 352 348 344 344 347 346 347 345 346 349
328 330 331 330 331 332 331 330 327 324 322 321 323 324 325 329 334 337 343 346 346 348 347 348 350 350 352 352 353 354 353 354 354 354 354 353 353 353 352 352 350 349 350 350 350 350 353 355 348 339 338 339 338 338 337 334 334 335 335 340 345 348 350 352 352 352 351 347 348 351 348 349 354 353 350 348 344 346 346 344 349 350 352 354 352 352 356 354 351 352 350 346 343 344 345 346 351
329 329 330 326 325 327 325 325 326 322 320 321 324 327 322 325 333 339 344 346 344 345 346 347 348 348 350 352 353 354 353 355 354 353 355 354 353 353 352 352 352 351 351 351 351 351 354 356 351 342 340 339 336 338 339 336 333 334 335 336 340 344 347 349 351 352 350 345 346 351 351 348 352 354 354 352 350 351 348 342 349 354 352 353 352 352 357 356 354 356 353 349 346 344 344 345 350
329 328 326 322 320 321 320 321 322 321 321 322 325 327 320 322 334 342 345 344 343 345 347 347 348 349 349 350 353 354 355 355 354 353 355 355 354 353 352 352 352 352 352 353 352 352 354 357 353 345 343 341 337 337 339 338 335 334 334 335 336 339 342 346 348 349 349 349 350 352 353 350 349 352 354 355 354 354 351 343 345 350 348 349 350 350 353 353 354 357 354 352 353 349 347 346 347
328 327 323 320 318 318 319 320 320 321 321 323 327 325 321 327 337 342 344 344 344 347 348 348 350 350 350 349 352 354 355 355 354 354 353 354 354 353 352 353 353 352 353 353 353 353 355 359 355 347 346 345 342 339 338 337 336 335 335 335 335 335 338 342 346 348 349 350 351 352 353 352 350 351 354 355 355 354 353 348 343 345 345 344 345 345 347 347 349 355 355 354 356 353 349 348 349
327 329 326 321 319 319 319 319 319 320 320 322 324 322 321 327 336 341 344 345 345 347 347 348 349 349 351 351 351 353 354 353 353 354 353 352 353 353 352 353 352 352 353 353 354 354 355 359 356 348 347 348 344 343 341 338 337 336 336 335 336 336 336 339 345 348 349 349 350 351 353 354 352 352 353 354 355 355 355 351 344 344 345 343 344 343 344 346 345 348 350 350 355 355 349 348 353
326 329 326 321 322 322 319 318 319 319 319 319 319 322 327 332 338 343 345 344 346 347 347 348 349 349 350 351 352 354 354 353 352 353 353 351 352 352 352 353 353 353 354 354 355 355 356 360 356 349 348 349 346 345 344 342 340 338 336 335 337 337 337 339 343 345 347 349 350 350 351 352 353 353 353 353 353 352 352 351 345 344 344 342 344 343 343 347 346 345 346 345 351 356 351 346 351
324 325 323 324 327 325 319 317 319 319 317 318 319 325 332 337 340 343 343 343 345 345 347 348 349 350 349 350 352 354 354 354 353 353 353 353 352 352 351 352 353 353 354 355 355 355 357 360 359 352 348 348 346 345 346 345 344 342 339 337 336 337 337 338 342 344 346 349 350 350 349 350 352 353 354 354 354 350 347 347 347 347 345 342 343 343 342 344 345 345 348 345 347 355 354 347 350
322 322 323 326 327 327 322 319 319 317 316 317 318 323 327 330 335 342 342 343 343 343 346 347 348 349 349 350 351 352 353 353 354 354 354 354 354 353 352 352 353 353 353 353 354 355 356 359 360 356 352 349 347 346 345 346 345 345 344 341 338 336 335 338 345 347 347 349 350 349 348 348 349 350 351 352 353 352 347 343 344 347 346 342 340 342 341 342 343 344 347 347 346 350 352 349 347
323 322 325 325 321 321 323 320 319 317 316 317 317 321 323 325 332 340 342 342 343 343 344 345 346 348 348 348 349 350 351 352 354 354 353 354 355 354 353 351 352 353 353 353 354 355 356 357 358 355 352 352 350 349 347 346 345 346 346 345 342 339 336 339 346 349 349 349 349 349 348 348 348 348 349 350 351 353 351 345 341 344 346 344 340 341 341 341 341 342 344 348 349 345 344 345 347
324 324 325 325 322 321 322 321 321 318 317 318 317 318 322 326 334 339 339 341 341 342 343 343 345 347 346 347 348 348 349 351 353 354 353 353 353 354 353 351 352 352 352 354 355 355 356 356 356 354 353 353 351 352 352 348 346 347 347 346 345 343 340 340 345 348 349 349 348 349 348 347 347 347 347 349 349 351 352 351 347 347 348 348 346 345 345 342 340 340 342 347 351 350 345 343 347
321 321 322 322 323 323 322 321 322 319 318 318 317 319 324 330 336 338 338 338 339 340 341 342 344 345 345 347 348 348 349 350 352 354 353 353 352 353 353 353 353 352 352 354 355 354 354 354 355 356 356 355 352 353 355 352 348 349 350 347 346 346 344 343 346 346 346 348 349 349 348 347 347 347 346 348 349 348 349 351 351 350 349 350 350 349 349 346 341 338 338 341 346 351 351 348 348
321 321 321 321 321 321 319 319 321 318 318 318 317 322 328 334 334 336 336 337 338 339 340 341 343 343 344 347 347 348 349 349 351 353 354 355 354 353 354 354 354 353 353 353 353 354 353 353 354 355 356 356 355 355 357 357 354 352 352 350 348 348 346 345 349 349 346 347 349 348 347 346 346 347 346 347 349 348 346 347 350 351 350 349 350 350 350 350 345 338 337 341 345 345 346 347 347
Wind_Speed
7 7 7 4 4 6 6 6 4 3 4 3 1 0 4 6 4 7 7 2 3 5 10 14 12 11 9 10 15 16 13 10 5 5 10 18 25 23 23 23 21 21 19 19 18 17 17 18 17 16 16 15 15 15 15 14 13 13 13 12 11 11 10 9 10 10 11 11 11 10 9 11 13 13 11 11 11 10 10 11 12 13 12 10 8 9 10 9 10 10 10 12 14 15 16 17 17
6 5 5 4 6 7 6 6 3 1 4 2 2 2 4 5 5 8 6 3 5 8 13 16 14 14 12 12 14 16 16 16 16 20 22 27 28 23 23 23 22 22 20 20 18 17 16 17 18 16 16 15 15 14 14 13 13 13 12 12 11 10 9 9 9 10 10 11 10 10 9 11 13 12 11 11 11 10 10 11 12 13 12 10 8 9 9 9 10 11 11 12 14 14 15 17 17
5 5 7 7 7 7 5 4 4 2 2 1 4 2 1 4 7 7 5 6 10 14 15 16 14 11 9 11 13 14 14 18 24 28 27 26 26 25 24 23 22 22 21 19 18 16 15 16 17 16 16 15 15 14 13 12 12 11 11 11 10 10 9 9 9 10 10 11 10 9 9 11 12 12 11 12 12 11 11 12 13 13 12 10 9 9 10 10 11 11 11 13 14 14 15 16 17
8 8 8 7 6 5 4 2 3 2 1 2 4 3 1 5 11 8 6 9 14 15 15 15 13 8 9 14 15 15 15 18 22 26 25 22 25 28 25 23 22 21 20 19 17 16 15 15 16 16 15 15 14 14 13 12 11 10 10 10 10 10 9 8 9 10 11 12 10 9 10 12 13 12 12 12 13 13 13 14 14 13 12 11 10 11 11 11 12 11 12 13 14 14 15 16 18
9 8 8 8 4 1 2 2 2 2 2 2 4 4 3 6 11 10 9 12 15 14 14 13 12 11 14 15 13 14 16 20 20 21 23 23 26 28 26 24 22 21 20 19 18 16 15 14 15 16 15 14 13 13 12 11 10 9 9 10 10 9 8 8 9 10 11 12 10 9 11 12 12 11 12 13 14 14 14 13 13 13 12 11 11 12 12 12 13 12 12 13 14 14 15 17 18
6 8 9 9 7 4 3 2 1 1 2 2 4 5 6 8 11 13 13 14 14 13 13 12 14 16 16 16 16 16 17 19 19 20 23 27 28 27 26 24 22 21 20 19 18 17 16 15 16 16 15 13 13 12 11 10 9 8 9 9 9 9 7 8 9 10 12 11 9 9 11 12 12 12 13 14 14 14 14 13 13 13 12 11 12 12 13 14 14 13 13 14 15 14 15 17 18
6 8 9 9 8 6 5 1 1 1 1 2 5 7 8 9 12 15 14 15 13 11 13 13 15 15 12 14 17 17 16 17 19 21 25 29 28 27 25 23 23 21 20 19 18 18 16 16 16 15 14 13 12 11 10 9 8 7 8 9 9 8 7 8 10 11 11 10 9 10 11 11 12 13 13 14 14 14 14 14 14 14 13 12 13 13 14 14 14 14 15 16 16 15 16 17 18
7 8 7 4 4 4 4 1 1 2 5 4 6 8 10 10 11 14 14 13 11 11 14 14 14 13 12 15 16 17 17 17 21 24 27 28 28 26 23 23 24 22 20 19 19 18 16 16 16 14 13 12 11 10 9 8 7 8 9 9 8 7 7 8 10 11 11 10 10 10 11 12 12 13 13 14 14 14 15 15 15 15 14 13 14 14 14 14 15 15 16 16 16 16 17 17 18
8 8 6 2 3 4 2 1 2 3 6 7 9 9 10 10 8 10 13 12 12 12 12 12 15 13 15 19 18 17 18 20 24 27 27 27 27 25 22 22 23 22 21 19 18 18 15 15 16 14 12 11 11 10 9 8 8 9 9 9 8 7 8 9 10 11 11 10 10 10 11 12 12 13 13 14 14 14 15 16 16 15 15 15 14 15 15 15 15 15 16 16 16 17 18 18 19
8 8 6 3 3 3 1 2 3 5 7 7 10 11 9 9 7 7 9 11 14 14 12 14 17 17 17 19 17 17 20 23 26 27 26 26 25 23 21 20 20 21 21 19 18 16 15 14 14 12 12 11 10 9 8 8 9 10 8 8 8 8 9 10 10 11 11 11 10 11 11 12 13 14 14 14 15 16 16 16 16 16 16 16 16 15 15 16 16 16 16 16 17 18 18 18 20
7 6 5 5 3 2 1 3 5 5 8 8 9 11 9 8 8 7 7 10 14 14 15 16 16 20 20 17 17 19 23 25 26 27 26 25 24 22 22 20 19 20 19 18 17 16 15 14 13 12 11 11 10 9 9 9 10 9 9 8 8 8 9 9 10 11 11 11 11 12 12 13 14 14 14 15 16 17 16 16 16 16 16 17 17 16 16 16 16 16 17 17 17 18 18 19 19
7 3 2 4 5 2 2 4 6 6 8 8 7 9 9 9 8 9 8 10 15 13 13 14 15 19 17 15 18 21 24 24 25 26 25 24 23 22 21 20 18 18 20 18 17 16 15 14 13 12 11 10 10 10 10 11 10 9 9 9 8 8 8 10 10 11 12 12 12 12 13 14 15 15 15 15 16 16 16 16 16 16 17 17 17 17 17 17 16 17 17 17 17 18 18 19 19
7 3 2 4 5 3 2 5 6 7 7 7 7 7 9 8 7 9 10 11 14 13 10 13 18 17 15 17 20 23 24 24 25 25 24 23 22 21 21 21 18 18 20 18 17 16 15 14 13 11 10 10 10 10 10 11 11 10 10 10 9 8 8 10 11 12 12 12 13 13 14 14 15 15 15 16 16 16 16 16 16 16 17 18 17 17 18 17 17 17 17 17 18 18 18 19 19
7 4 3 3 4 3 2 4 5 6 5 6 7 7 6 6 8 7 9 11 9 11 11 13 18 16 17 19 19 23 25 24 25 24 24 22 21 21 20 20 20 18 18 17 17 16 15 14 13 11 11 10 10 11 11 11 11 10 11 10 9 9 9 10 11 13 13 13 14 14 14 15 16 15 15 16 16 16 16 16 16 16 17 18 18 17 18 18 17 17 17 17 18 18 19 19 19
7 6 4 3 4 2 3 2 3 5 6 7 7 8 6 5 8 4 5 9 6 12 14 13 14 12 16 18 18 24 26 26 26 24 24 23 21 21 20 18 18 17 16 16 16 16 16 15 14 11 12 12 11 12 11 10 11 10 12 12 10 10 9 10 12 13 14 14 14 15 15 15 15 15 16 16 16 16 16 16 16 17 17 18 18 18 18 18 18 17 17 18 18 19 19 19 19
7 7 3 2 1 2 3 2 1 3 7 9 10 11 7 4 7 7 7 8 10 14 13 11 9 8 17 19 23 28 28 27 25 25 24 23 21 20 19 17 17 17 17 16 15 16 15 15 14 12 12 12 11 12 11 10 10 9 12 13 11 11 10 11 12 14 14 14 14 15 16 15 15 15 16 16 15 15 16 16 16 17 17 18 19 19 19 19 18 19 18 19 19 19 18 18 18
6 5 3 2 1 3 1 2 1 4 8 9 10 10 9 6 6 9 10 8 12 14 11 12 9 10 18 22 27 30 29 28 26 25 25 23 22 19 18 17 17 17 16 15 15 15 15 14 14 13 12 11 11 13 13 11 11 10 11 14 13 11 11 12 13 14 14 14 14 15 15 14 15 15 16 15 14 15 16 16 17 17 18 18 19 20 20 20 19 19 19 19 19 18 18 18 17
5 2 2 3 3 5 3 2 2 6 8 9 8 7 9 8 6 9 10 9 13 12 10 12 10 14 20 25 30 30 29 28 26 26 25 23 21 20 18 17 17 16 15 15 15 15 15 14 12 12 12 11 11 12 13 13 12 11 11 13 14 12 13 13 13 13 14 14 14 14 14 14 15 15 15 15 14 15 15 16 17 18 18 18 19 20 20 20 20 19 19 18 18 18 18 17 17
6 1 1 1 4 8 10 6 2 5 8 11 8 8 8 10 8 8 7 10 13 11 11 12 15 21 26 30 31 29 29 28 27 26 24 23 21 20 19 17 16 15 15 14 15 14 13 13 11 11 11 11 11 10 12 14 14 12 11 13 15 15 15 15 14 13 14 14 13 12 14 14 14 15 14 15 15 15 15 16 18 18 18 18 19 19 19 18 18 18 17 17 16 17 16 15 14
4 2 2 1 3 6 12 11 6 6 10 12 9 8 8 10 8 4 6 10 11 10 12 14 19 26 29 31 30 30 29 27 27 25 23 21 20 20 19 18 17 15 15 13 14 13 12 13 12 11 10 10 10 10 10 11 13 12 13 14 15 17 18 17 15 14 14 14 13 12 13 14 15 16 15 15 15 14 15 17 18 18 19 19 19 17 16 16 15 15 14 15 15 15 14 11 10
2 2 2 2 1 3 9 12 12 9 11 12 11 9 8 10 10 7 9 8 6 8 11 15 21 27 30 31 30 29 28 27 25 24 22 20 19 19 17 17 16 15 14 13 13 13 12 12 11 10 10 10 8 8 9 10 10 11 14 15 16 18 18 17 16 14 15 14 12 12 12 13 14 15 15 15 14 13 14 15 16 16 16 18 18 16 15 15 15 14 13 15 15 12 11 9 8
4 7 7 1 2 2 4 7 14 11 13 14 12 10 8 11 12 9 10 6 5 9 11 15 21 26 29 30 30 28 27 27 25 24 22 20 19 18 17 17 15 15 14 13 13 12 13 12 11 10 10 11 8 6 7 8 8 9 11 13 15 17 16 16 17 15 15 14 13 12 12 12 13 14 14 13 12 12 13 13 13 13 13 15 16 14 14 14 14 14 15 16 13 9 9 10 9
4 5 6 0 2 3 2 3 10 9 11 11 9 11 10 11 12 10 10 6 7 12 12 17 22 24 27 28 28 28 27 26 24 23 21 20 19 17 17 17 16 16 14 13 13 13 13 12 11 10 10 11 11 7 6 6 6 7 8 10 11 14 15 15 16 17 16 15 13 12 12 10 11 12 13 13 12 12 12 12 12 11 11 12 14 12 12 12 13 14 15 14 11 8 9 10 10
4 4 3 1 1 2 1 2 5 8 8 8 9 13 11 7 10 12 10 7 9 15 15 19 23 25 26 26 26 27 27 25 24 22 21 19 18 18 17 16 16 15 14 14 13 13 13 12 12 11 10 10 11 10 8 7 6 6 7 9 8 10 13 12 13 17 19 17 12 11 11 9 9 10 10 12 12 11 10 10 11 10 9 9 10 11 11 12 12 13 13 11 10 8 8 9 9
8 6 2 0 2 1 1 2 3 8 10 10 10 12 10 8 10 11 10 9 13 17 18 21 24 25 25 25 25 26 25 23 23 22 20 19 17 18 17 15 15 15 14 14 14 13 13 13 12 11 10 9 10 10 8 7 8 8 7 7 8 10 10 9 10 13 16 19 16 12 10 8 9 9 8 9 10 11 9 8 9 8 10 9 8 9 10 11 11 11 11 10 9 8 8 8 8
7 7 3 3 4 3 2 1 4 8 11 13 13 11 11 12 12 10 11 13 15 19 20 22 25 25 24 24 24 25 24 23 23 22 20 18 18 18 16 16 15 15 15 14 14 14 13 13 12 11 11 10 10 10 8 8 8 9 8 7 8 10 9 9 10 9 10 15 17 15 13 9 9 9 9 10 10 11 10 9 8 8 9 9 9 9 9 10 10 10 10 9 8 8 7 7 7
6 8 5 6 5 2 2 2 7 8 9 13 13 13 14 14 10 7 12 16 17 21 21 22 24 24 23 24 24 24 23 23 22 21 20 19 18 18 16 16 15 15 15 15 14 13 13 13 12 12 11 11 10 10 9 9 9 8 9 8 8 8 10 10 10 9 9 11 14 16 16 12 8 10 11 11 11 11 10 9 8 7 7 8 8 8 8 8 9 9 9 9 8 7 7 6 6
5 8 7 8 6 2 2 4 8 8 7 9 10 14 14 12 8 7 14 17 18 21 22 22 23 23 23 23 23 23 22 22 22 21 20 19 19 18 17 16 16 15 15 15 14 13 13 13 13 12 12 11 10 9 9 9 9 9 9 9 8 9 10 10 9 10 9 10 13 13 15 13 9 11 11 10 10 10 9 8 7 8 7 7 7 8 9 9 8 10 11 10 9 6 6 6 5
6 8 9 8 7 5 5 6 7 7 7 6 7 10 10 8 7 9 14 17 18 20 21 21 21 21 22 23 23 22 22 21 21 20 20 19 18 18 17 16 16 16 15 14 14 14 13 13 13 12 12 12 11 9 9 9 9 9 9 8 9 10 10 9 9 10 10 11 12 11 13 13 12 11 12 11 9 8 9 9 7 8 7 7 8 9 10 10 8 10 10 9 8 6 6 6 5
8 10 8 6 7 6 5 7 6 4 5 7 6 5 6 6 6 11 15 16 18 19 20 21 20 21 22 22 22 22 22 22 21 21 19 19 18 18 17 16 16 15 15 15 14 14 14 13 13 12 12 12 11 9 9 10 9 9 8 8 10 10 9 9 9 10 10 10 10 11 12 13 13 12 14 13 8 7 8 8 7 7 7 7 9 10 9 8 8 7 7 7 7 6 6 5 5
9 10 7 7 6 4 5 8 7 4 3 6 7 3 4 6 4 10 16 18 20 18 19 21 19 20 21 22 22 22 22 22 21 21 20 19 18 18 17 17 16 15 15 15 15 15 14 13 13 12 12 12 11 10 10 10 10 9 8 9 10 10 9 9 9 9 10 10 9 11 11 12 13 12 14 14 9 7 7 7 7 6 8 8 7 10 8 6 8 6 4 7 8 6 6 6 5
9 9 7 8 6 4 7 8 9 7 3 2 3 2 6 7 7 12 16 20 23 17 15 19 19 20 21 22 21 22 22 21 21 21 20 19 18 18 18 18 17 15 16 16 16 15 14 14 13 12 13 13 11 11 11 10 10 10 9 9 11 10 9 9 9 9 9 9 9 10 11 11 11 11 13 14 10 7 6 6 6 7 9 6 7 12 9 5 7 7 5 7 7 6 5 5 5
9 8 7 8 7 5 6 8 11 10 5 1 1 0 5 4 7 12 14 15 18 18 17 17 18 20 21 22 21 22 23 22 21 21 21 20 19 18 18 18 17 16 16 16 16 16 14 14 13 12 13 13 12 12 12 11 11 11 10 10 10 10 9 9 9 9 9 10 9 9 10 10 10 10 12 14 11 7 7 6 5 8 8 6 8 10 8 7 6 6 7 7 7 6 5 4 4
8 8 8 8 9 7 4 7 13 13 7 5 4 2 3 3 4 8 11 11 12 16 19 17 17 19 19 20 21 21 23 23 22 22 22 20 19 19 19 18 18 16 16 16 16 16 14 14 14 13 13 13 13 12 12 12 11 11 11 10 10 11 8 8 9 9 9 10 9 9 10 10 10 10 10 13 12 7 7 7 6 7 7 6 8 7 5 6 4 4 7 7 7 6 5 4 4
9 9 8 8 10 11 7 6 10 15 9 6 5 4 4 5 5 8 10 14 16 16 20 20 17 17 18 19 21 22 22 23 23 22 22 21 20 19 19 19 18 17 16 16 16 16 15 14 14 14 14 13 13 13 13 13 12 11 10 10 11 11 9 9 9 9 9 9 9 9 10 9 9 9 9 10 11 8 6 7 7 7 6 6 8 6 4 5 5 5 5 6 8 6 4 4 3
11 12 10 9 11 10 9 6 7 11 10 8 8 6 5 5 9 11 13 17 19 17 21 21 19 18 17 17 19 21 22 22 22 23 23 22 21 20 19 19 19 17 17 17 17 17 16 15 16 15 14 14 13 13 13 12 12 11 11 10 11 10 9 9 9 9 9 9 9 9 9 9 9 8 8 8 10 9 6 5 7 7 6 7 8 6 3 3 6 6 5 7 7 4 3 4 2
10 10 12 11 13 8 8 9 7 7 6 7 12 12 9 9 9 11 14 15 11 10 14 19 23 22 18 17 19 21 21 22 22 23 23 22 21 21 20 20 19 18 17 18 18 17 17 16 16 17 16 14 14 14 14 13 12 12 12 11 10 10 10 10 10 9 9 8 9 9 9 8 9 8 8 7 8 9 8 6 6 7 6 7 7 6 5 4 5 5 5 7 6 3 3 3 2
11 12 10 11 14 6 9 10 8 7 5 5 10 15 14 13 9 9 13 11 8 8 11 15 19 22 22 22 21 21 20 21 22 23 24 23 22 22 21 20 20 20 19 19 19 18 17 16 16 17 16 15 15 14 14 14 13 13 12 11 11 10 10 10 9 9 9 8 8 9 9 8 8 8 8 7 7 8 8 6 6 7 6 6 6 6 5 5 5 5 5 4 4 3 2 2 2
11 10 7 11 10 4 8 8 8 7 5 5 6 10 13 15 14 14 15 12 12 13 13 12 12 16 20 19 19 20 19 20 22 24 24 24 23 23 21 21 21 20 20 20 19 18 18 17 17 17 16 16 15 15 15 14 13 12 11 10 10 10 10 9 9 9 9 8 8 8 8 8 8 7 7 7 6 6 7 6 5 5 5 5 5 5 5 4 5 6 4 3 4 4 2 2 2
11 7 6 10 11 8 5 7 10 8 6 6 6 6 9 14 14 14 15 15 15 15 13 12 11 10 11 13 15 18 20 21 23 25 25 24 24 24 22 21 22 21 20 20 20 19 19 18 19 18 17 17 16 16 16 14 14 14 13 11 9 9 10 9 9 9 9 8 8 7 7 8 8 7 7 7 6 6 6 6 5 5 5 5 5 5 5 4 4 5 3 3 4 3 3 2 2
11 10 10 9 13 14 2 3 9 9 7 5 5 6 6 12 13 12 14 15 15 16 16 14 11 8 8 10 13 16 19 21 22 24 26 26 25 25 23 22 22 22 21 21 21 20 20 19 19 19 18 18 17 17 17 16 16 16 17 16 12 10 11 10 10 10 9 9 8 7 7 7 8 7 7 7 7 5 6 5 5 5 4 4 5 4 4 3 3 3 3 3 3 3 3 2 1
10 13 15 11 14 14 6 4 5 6 7 8 8 7 4 10 12 12 14 13 12 16 17 16 14 13 14 12 13 16 18 20 22 24 26 26 26 25 24 23 23 23 22 22 22 21 20 20 20 19 19 18 17 18 17 17 17 16 16 17 14 12 12 11 10 10 10 9 8 8 7 7 8 8 7 7 7 6 6 5 5 5 3 4 5 4 3 3 3 2 2 3 2 3 4 2 2
8 11 15 13 11 11 10 9 7 6 6 9 11 7 3 8 8 9 11 10 9 12 15 17 17 16 17 15 15 16 16 19 22 23 24 24 25 26 25 25 24 24 23 22 22 21 21 21 21 20 20 19 18 18 19 18 17 17 16 15 13 12 11 11 10 9 9 9 8 8 7 6 8 8 6 7 7 6 6 5 5 5 3 2 3 4 3 2 2 2 2 3 3 3 5 5 2
8 9 16 14 7 8 9 8 7 9 4 7 10 8 5 6 6 7 6 7 7 8 10 16 19 17 16 16 17 17 18 20 20 20 23 23 25 26 25 25 25 24 24 23 23 22 22 23 22 21 20 20 19 18 20 19 17 18 18 15 13 12 10 10 11 10 9 9 8 8 8 7 8 9 7 7 7 6 6 6 5 5 5 3 2 3 3 2 4 3 3 3 3 3 5 5 3
5 2 10 13 9 9 7 6 7 9 8 6 9 9 7 5 6 6 5 6 6 6 7 12 17 19 18 18 17 17 19 21 19 20 23 23 24 25 24 25 24 24 24 23 23 23 24 24 23 22 21 21 21 19 20 20 18 19 19 16 13 12 10 10 11 10 9 10 9 9 9 8 7 9 9 8 7 7 6 6 5 5 5 4 3 2 2 3 4 3 3 2 3 3 4 5 4
3 6 3 8 9 11 9 9 9 8 11 9 8 10 8 2 5 7 5 5 6 6 6 7 11 17 21 22 20 19 22 22 21 21 22 23 24 24 24 24 24 24 24 24 23 23 24 25 24 23 22 22 21 20 19 20 19 19 19 18 15 13 12 10 10 11 11 11 11 10 10 9 7 7 8 8 7 7 6 6 5 5 5 4 4 4 4 3 2 2 3 2 3 4 4 5 3
9 5 4 8 7 9 9 8 9 8 11 11 9 12 11 2 2 6 4 3 3 3 5 5 5 9 15 20 21 23 25 25 23 22 21 22 24 24 24 24 25 24 23 24 24 24 24 25 24 24 23 23 22 20 19 20 20 19 19 19 17 15 13 12 12 12 12 12 12 11 11 10 9 7 8 7 6 7 7 6 6 4 5 5 5 5 4 3 1 1 2 2 3 3 4 4 3
13 4 5 9 7 6 7 7 8 9 10 11 12 15 14 8 4 5 5 4 2 1 3 3 2 3 6 13 18 22 25 25 23 22 21 22 23 24 25 25 25 25 25 25 24 24 24 25 25 24 24 24 23 21 20 20 20 20 19 19 18 17 15 14 13 13 13 12 12 11 10 11 10 9 9 7 7 7 7 7 7 7 6 6 5 4 4 5 4 3 3 2 2 2 3 2 3
10 7 7 9 8 7 8 8 8 8 9 10 13 17 13 5 5 7 7 5 4 3 4 4 3 3 2 7 13 18 21 21 21 21 21 23 24 26 26 26 27 27 26 26 26 25 25 25 26 25 24 24 24 22 21 21 21 21 20 19 19 18 17 16 15 13 13 12 12 11 11 11 11 11 10 9 8 9 8 7 8 8 8 7 7 6 7 8 7 4 4 3 2 1 1 1 2
10 9 9 8 7 8 9 9 8 9 9 9 13 16 9 6 7 7 7 7 5 5 7 6 5 4 2 5 13 18 19 19 20 21 22 23 24 25 26 26 28 29 27 27 26 26 26 25 27 26 25 24 23 22 21 21 21 21 21 20 19 19 18 17 16 14 14 13 13 12 12 11 11 11 11 10 9 10 9 8 8 8 8 8 8 7 7 8 7 6 5 4 3 2 2 1 0
12 9 10 9 7 7 7 8 8 8 8 10 14 14 8 7 7 7 8 9 8 8 8 8 8 6 5 7 10 18 21 21 21 21 22 23 23 24 25 26 28 29 28 27 27 26 26 27 28 27 26 25 23 22 22 21 21 21 21 21 20 19 19 18 17 15 14 14 13 13 13 12 11 10 11 11 10 10 10 9 8 9 9 8 8 7 7 6 6 6 5 5 5 4 3 3 2
11 10 10 9 8 8 6 7 9 9 8 10 10 5 3 6 10 10 9 9 9 9 9 11 11 9 10 12 8 12 17 18 19 20 22 23 23 25 25 26 28 28 27 26 27 27 26 27 28 28 27 26 24 23 22 21 20 21 21 21 21 20 20 19 18 17 16 15 14 14 14 13 11 11 11 11 11 11 11 10 9 9 9 9 8 7 7 6 6 6 5 5 5 5 5 3 3
6 10 11 9 10 9 7 9 10 10 10 9 9 5 7 7 8 9 10 10 10 9 11 12 13 12 12 12 8 7 10 14 15 17 20 22 24 26 27 27 28 28 27 26 26 26 25 26 28 28 27 26 25 24 23 21 20 20 20 20 20 21 21 20 19 18 17 16 15 15 14 13 13 12 11 11 12 12 12 11 10 9 9 9 8 8 7 7 7 6 5 5 5 5 6 5 4
5 7 9 10 11 8 7 7 9 11 10 8 12 12 9 8 6 6 9 9 10 10 11 12 13 13 13 11 9 8 6 8 11 13 17 18 19 23 27 28 27 25 25 27 27 27 26 25 26 27 26 27 26 25 23 22 21 21 19 19 20 20 21 20 19 18 17 16 16 16 15 14 14 14 12 12 12 13 13 13 12 11 10 10 9 9 8 9 8 7 7 7 6 7 7 6 5
10 5 6 8 9 7 6 6 7 11 10 8 14 16 11 8 7 8 8 8 10 10 10 11 12 13 13 12 11 9 7 5 4 8 14 16 15 18 23 26 26 23 23 24 25 26 27 27 26 26 26 27 27 25 24 23 22 22 21 19 19 20 21 21 20 19 18 18 17 17 16 16 15 14 14 14 13 12 13 14 13 13 12 11 10 10 10 10 9 9 9 8 7 8 8 7 6
12 7 7 8 6 7 8 6 6 8 9 9 13 14 8 5 7 8 7 6 7 8 9 10 12 14 13 13 13 11 9 6 5 3 8 14 17 20 23 25 26 25 22 22 23 25 26 26 26 26 26 27 28 26 26 25 24 23 22 20 19 19 20 21 21 21 20 19 19 18 17 16 16 15 15 15 15 15 14 14 14 13 12 11 11 11 11 11 11 11 10 9 8 9 9 8 8
10 8 8 8 6 7 9 9 7 7 9 9 10 9 6 6 6 7 7 5 4 6 7 8 12 14 14 15 14 13 12 10 11 11 5 10 16 21 22 23 24 24 21 20 21 23 23 24 25 26 27 28 28 28 27 26 25 24 23 22 21 20 20 20 21 22 22 21 20 19 18 17 17 17 16 16 17 17 16 16 15 14 14 13 13 13 12 12 12 12 11 10 10 11 10 9 9
4 7 9 10 9 8 9 10 10 9 9 8 8 7 7 6 4 6 6 4 4 5 5 8 11 12 13 15 15 14 14 13 13 14 12 7 7 14 17 18 18 19 20 20 20 20 20 22 25 24 25 26 26 27 27 26 25 25 24 23 22 20 20 20 21 22 23 22 22 21 20 19 18 18 18 18 18 18 17 17 16 16 15 14 14 15 14 13 13 13 13 12 11 12 12 11 10
Wind_Direction
155 160 155 122 156 202 212 220 248 230 238 247 208 115 112 133 130 107 111 175 139 105 102 100 90 81 88 93 90 75 57 58 54 81 111 134 137 140 142 139 139 136 137 136 131 127 123 122 122 120 119 119 118 117 119 121 119 113 106 101 99 96 94 95 94 90 86 89 90 84 76 73 76 77 81 88 89 85 82 82 82 85 89 89 87 88 88 93 98 102 104 106 106 107 106 104 104
138 154 170 189 191 217 233 211 246 255 230 240 102 69 96 125 119 101 113 150 123 123 110 100 88 75 85 98 93 78 60 67 84 93 111 129 129 135 140 136 137 136 137 135 132 128 125 124 120 119 119 120 119 118 119 120 117 110 105 102 100 97 96 94 91 89 90 92 88 83 75 72 76 80 86 89 90 88 85 82 81 85 90 91 92 93 91 91 93 97 103 105 106 107 104 102 103
149 193 186 200 199 227 257 223 239 251 225 138 81 62 104 126 112 108 148 161 132 123 108 100 90 71 81 90 80 80 79 85 97 105 117 129 130 136 138 137 140 135 134 133 132 130 127 125 121 120 121 121 121 119 120 117 112 107 104 106 104 98 95 93 93 93 94 91 84 79 77 77 81 85 88 90 89 86 85 82 82 84 86 90 96 97 93 91 92 94 100 103 105 105 102 99 100
171 205 192 216 218 225 249 230 251 286 290 111 94 64 73 124 119 130 176 149 127 119 108 102 94 75 80 87 85 87 94 99 106 114 124 134 134 138 139 138 139 132 134 133 132 134 128 125 123 120 118 120 120 118 117 113 109 108 110 112 106 99 96 93 92 91 91 90 83 78 79 82 85 87 87 87 84 80 78 79 81 83 84 87 91 95 93 91 93 97 101 103 104 104 102 99 99
175 208 205 222 232 248 248 263 300 306 340 49 93 93 130 128 122 134 147 134 127 121 112 110 104 95 80 78 90 96 105 109 112 118 125 133 135 138 138 138 137 133 135 132 134 135 130 128 124 119 118 119 118 115 113 111 111 113 116 114 106 103 101 93 91 89 89 89 84 80 82 83 87 88 85 81 80 79 79 81 84 87 88 87 87 92 96 94 95 98 101 104 105 105 103 101 101
185 217 216 224 246 263 247 264 335 333 358 24 107 121 139 131 128 132 134 130 125 120 117 115 111 103 82 75 83 98 115 117 118 122 126 133 137 139 137 137 135 133 134 133 138 137 133 132 126 121 121 122 120 117 115 114 113 111 115 114 109 106 102 95 94 91 89 91 89 85 85 86 87 86 81 77 78 82 84 84 86 90 90 88 89 93 96 97 96 99 101 105 107 107 105 103 102
206 226 216 223 251 253 252 273 132 180 105 108 125 134 134 130 137 134 135 134 128 125 122 117 113 106 93 90 86 95 112 118 122 126 130 135 139 139 137 137 133 133 134 134 142 140 136 134 127 123 122 124 124 122 120 115 108 107 115 117 112 109 103 98 97 93 93 96 94 91 92 91 88 85 82 79 81 85 85 84 85 90 93 93 94 95 97 96 97 100 102 107 110 110 107 103 101
227 249 238 237 265 246 253 314 185 152 117 130 126 136 135 133 145 141 143 140 133 124 113 113 112 97 96 105 98 101 109 115 123 127 132 135 139 140 140 143 138 135 135 137 144 141 137 133 126 124 125 127 127 125 121 113 107 110 116 117 114 114 108 100 97 95 97 101 98 97 97 95 92 89 86 84 85 85 82 82 83 87 94 96 96 97 98 98 100 103 105 107 109 109 107 105 102
237 254 263 276 277 273 269 151 169 94 106 130 121 133 137 135 162 155 143 135 131 122 111 116 113 101 103 106 101 107 112 118 124 127 132 137 141 141 142 149 145 138 138 141 144 141 137 130 126 127 129 130 129 126 121 115 114 118 119 118 118 116 110 104 97 95 98 102 102 99 98 97 94 91 89 88 88 85 82 82 83 88 94 96 98 99 100 102 104 104 104 105 107 108 107 106 103
241 240 265 284 263 272 235 149 134 99 103 113 113 134 140 134 170 160 133 135 138 133 124 119 114 112 112 107 105 112 120 126 128 128 133 137 141 142 141 146 145 142 143 144 143 143 140 132 130 132 133 134 132 128 125 121 121 122 121 121 121 116 109 105 101 100 103 104 105 101 100 98 93 91 91 91 89 85 83 83 84 89 94 96 97 99 101 103 104 104 103 105 106 106 105 104 104
250 241 276 294 278 267 194 130 115 108 106 103 108 128 134 140 162 157 135 140 144 140 128 121 117 113 109 105 107 118 127 130 131 131 135 137 140 142 140 144 145 142 143 144 145 146 142 137 136 135 136 137 135 132 131 126 125 126 126 123 119 115 107 105 105 105 108 109 109 107 105 100 95 94 93 92 88 86 85 86 87 90 95 97 97 98 102 104 105 106 105 106 106 105 104 104 104
260 282 327 289 293 303 163 130 114 114 112 112 119 122 129 150 169 153 142 146 149 142 119 120 126 118 111 109 115 127 132 132 134 134 137 138 139 141 140 142 143 141 140 141 143 145 142 140 139 137 137 137 138 136 134 130 129 132 126 119 116 114 109 107 108 109 111 113 112 110 109 103 98 96 95 93 89 89 88 88 89 91 95 96 97 97 100 103 104 106 107 108 107 106 105 103 103
262 314 315 273 311 326 130 118 115 120 118 117 130 129 128 156 175 150 153 157 148 134 115 125 132 123 116 117 124 135 135 136 137 137 138 137 138 140 139 139 140 139 139 141 142 144 141 139 137 135 131 131 135 132 132 133 132 136 126 117 118 118 113 110 112 113 113 114 114 113 111 106 102 100 98 95 91 90 88 89 90 91 93 94 96 98 99 101 102 104 106 107 106 104 103 100 99
262 296 278 283 339 325 75 115 136 127 120 117 130 136 137 177 164 155 167 147 130 135 133 133 129 119 119 123 132 140 139 140 141 139 139 137 138 139 138 143 145 140 138 145 146 143 140 137 135 131 129 131 132 130 134 135 134 137 125 118 123 120 115 115 116 116 116 117 116 115 112 109 107 104 101 97 93 91 90 91 92 91 92 93 95 97 97 99 100 101 102 104 103 102 100 97 97
266 276 270 325 354 337 16 75 144 131 127 131 145 144 147 187 148 146 167 127 132 147 131 125 126 124 135 138 143 146 144 143 142 141 139 138 138 138 139 144 147 144 143 148 147 143 141 139 142 138 135 139 136 135 138 136 135 136 125 122 125 121 121 122 120 118 118 119 119 117 113 110 109 106 102 99 95 91 92 92 92 92 93 94 95 95 95 96 98 99 99 100 102 101 99 98 99
269 280 287 338 34 84 10 14 170 146 121 132 154 153 145 162 138 131 143 135 145 138 120 125 130 138 145 142 143 145 144 144 144 142 140 139 139 138 139 140 140 143 143 147 147 143 141 142 150 147 140 144 141 139 141 135 134 135 129 127 128 126 126 125 122 121 120 119 120 118 115 114 112 107 102 100 98 95 95 93 91 91 94 95 95 94 95 95 96 97 98 99 100 100 98 98 99
268 284 302 298 65 89 3 338 156 132 116 131 150 153 144 140 135 136 147 153 141 128 127 138 139 145 142 139 141 143 143 144 144 144 143 142 142 141 141 142 142 142 142 143 143 142 140 144 152 145 141 146 141 143 143 136 133 135 130 125 128 129 127 124 122 122 120 120 121 118 117 116 113 108 104 101 99 97 96 94 92 92 94 94 94 94 94 95 94 94 95 96 97 98 98 98 99
260 311 324 283 14 73 112 11 61 129 136 136 147 166 149 134 148 157 155 145 137 130 134 138 135 136 134 136 140 141 144 146 147 147 147 146 147 146 146 148 148 146 144 141 141 140 138 143 148 140 140 141 136 143 140 135 135 135 131 125 128 131 125 121 121 122 120 120 119 117 116 112 109 109 108 107 103 100 97 95 93 94 95 96 96 95 95 95 94 93 93 94 96 95 93 93 94
231 233 295 264 28 69 113 127 110 146 149 134 151 187 153 134 155 171 151 137 143 136 131 131 125 128 132 138 141 144 146 148 151 151 150 150 151 151 150 151 152 150 147 144 143 141 140 143 143 140 144 141 137 141 136 135 136 133 132 130 131 129 125 122 122 123 120 120 116 111 114 113 113 112 111 110 107 103 99 96 95 97 100 100 98 97 97 96 96 96 94 94 92 87 83 83 83
220 175 274 63 38 56 99 117 124 143 147 138 159 170 134 138 157 163 138 142 152 139 135 137 130 133 138 141 144 146 149 151 153 153 152 152 153 153 152 152 154 154 149 148 146 143 148 144 143 149 147 139 134 133 130 132 134 135 133 130 130 129 129 127 124 124 123 122 116 109 111 113 113 113 111 108 107 106 103 99 97 99 103 102 100 99 97 96 96 94 96 94 83 76 75 80 84
237 180 259 26 357 11 75 105 120 146 158 150 161 144 127 153 155 150 150 148 145 136 143 144 138 140 142 145 148 149 152 154 155 155 154 153 154 154 154 153 153 153 150 150 147 146 151 145 147 155 144 136 131 130 127 127 134 135 134 133 133 132 128 126 127 129 131 127 117 112 113 114 113 112 110 108 110 112 109 103 101 102 106 105 103 99 97 94 89 85 89 89 80 78 83 89 93
221 198 211 289 324 30 49 97 112 145 170 168 167 141 147 163 145 145 155 151 156 155 154 150 145 145 146 148 150 151 154 155 158 158 156 155 155 156 155 153 152 153 153 151 148 150 153 148 150 153 144 139 131 132 124 126 132 120 127 133 133 135 132 131 130 126 131 128 118 118 114 110 112 113 112 111 112 115 115 111 107 107 108 109 105 97 95 94 88 81 77 80 84 94 102 104 100
227 205 205 199 349 57 26 65 104 143 164 162 150 133 162 160 136 147 151 146 174 166 154 150 149 148 149 150 152 154 156 158 159 159 158 157 156 158 156 155 155 153 154 152 150 154 153 150 150 151 150 143 136 136 122 123 120 100 118 124 127 137 135 135 132 128 134 130 123 125 118 106 109 114 116 117 118 118 120 115 110 112 109 107 107 101 94 94 95 89 80 81 92 97 95 97 100
221 244 233 94 4 49 11 353 119 137 132 135 136 143 166 153 134 151 145 127 152 155 150 149 148 149 150 152 154 155 157 159 159 159 159 159 157 158 156 155 155 153 154 153 153 155 154 154 152 151 154 148 140 137 131 132 125 116 123 122 131 131 119 126 132 135 139 133 130 127 115 105 103 107 113 116 115 116 121 115 110 117 113 103 103 102 95 89 89 88 87 91 96 97 95 95 96
223 239 247 81 294 332 332 312 137 131 129 146 154 151 151 143 138 138 137 132 141 149 149 149 147 149 151 154 156 155 158 160 159 161 159 159 157 155 155 155 155 154 155 154 154 155 156 157 153 153 156 151 142 134 134 137 133 131 123 123 128 111 108 123 123 127 133 134 137 127 115 117 114 115 118 114 112 113 114 111 109 111 109 106 102 98 98 97 94 93 96 99 98 98 98 97 98
234 245 271 288 291 332 337 266 161 138 141 159 160 149 151 162 151 137 151 145 143 149 146 147 149 152 153 155 158 157 160 160 161 162 159 158 156 155 156 155 156 156 156 155 155 155 157 158 153 154 156 152 143 135 140 139 132 130 125 131 122 109 120 123 111 114 122 129 136 134 130 131 127 130 126 119 119 115 109 104 101 92 91 104 108 102 101 101 102 100 98 100 102 101 100 100 102
244 251 275 275 277 322 316 188 156 139 149 174 162 149 165 168 149 147 160 145 143 147 143 148 152 154 156 156 158 160 162 162 162 162 159 159 158 158 158 155 158 157 156 156 155 156 157 157 156 157 158 155 145 140 147 141 135 135 132 131 122 123 128 115 113 121 120 122 130 135 129 120 124 127 121 119 115 107 103 102 101 97 92 94 98 102 100 100 108 113 109 106 101 99 102 103 104
259 257 264 249 242 218 198 156 153 148 158 187 160 146 158 147 130 140 148 147 148 147 145 151 154 156 158 157 158 161 164 163 163 164 162 162 161 162 161 158 159 158 159 158 156 157 156 158 160 160 161 158 149 146 148 141 140 139 135 132 132 134 123 116 122 122 123 127 129 133 127 125 135 128 118 115 108 104 107 107 105 105 100 96 105 113 107 100 108 115 111 102 98 97 101 104 108
253 250 256 233 211 194 172 152 165 168 158 183 163 150 151 135 151 156 151 154 148 146 149 152 157 159 159 159 159 163 166 165 165 167 166 164 164 165 164 161 160 158 160 160 159 158 156 160 161 160 165 160 149 148 146 142 141 138 135 138 140 133 121 122 127 125 130 131 131 134 131 132 134 128 122 113 106 112 111 109 109 105 106 112 114 115 106 100 97 98 97 92 97 103 98 101 106
243 242 252 241 206 182 154 154 168 156 140 162 152 147 161 148 168 172 165 154 142 151 154 152 159 161 161 162 161 165 167 168 169 169 169 167 167 167 165 164 162 158 159 161 161 160 158 161 161 160 167 159 148 150 150 143 140 137 138 141 139 131 127 130 130 130 131 128 134 134 132 133 131 132 126 114 108 113 108 109 112 109 118 114 109 108 100 105 109 100 101 101 102 105 103 103 101
236 238 234 241 230 170 167 175 149 101 120 167 157 153 148 137 186 192 174 156 149 159 159 156 162 161 164 166 164 168 169 171 173 171 171 170 170 170 168 167 165 161 161 162 161 160 160 161 160 162 164 157 154 157 152 145 141 140 140 142 140 133 131 133 129 129 129 129 137 136 136 137 134 136 130 120 117 117 112 112 119 125 118 108 118 119 106 109 115 112 115 107 103 106 108 108 105
223 237 224 229 234 164 186 183 134 120 150 212 220 202 111 127 197 196 179 166 155 159 163 161 164 164 166 168 168 169 169 173 173 173 174 172 173 173 170 170 167 164 163 163 162 160 162 162 160 162 161 158 163 163 153 149 149 145 143 145 143 136 134 134 131 133 130 130 137 141 142 140 138 141 136 125 118 125 124 121 139 136 116 118 135 122 118 126 119 124 126 107 109 112 103 102 104
209 225 230 225 222 183 187 170 132 129 147 138 286 259 100 131 196 187 184 176 157 156 163 165 166 167 169 169 171 171 169 173 175 175 175 172 174 173 172 172 169 167 165 164 164 162 165 165 161 162 161 161 167 166 158 157 157 150 145 149 146 137 137 138 136 137 135 134 143 149 145 142 141 141 139 128 119 128 128 126 147 129 120 150 140 118 123 130 123 134 128 112 114 111 104 105 104
200 207 229 228 222 211 185 160 139 135 157 167 141 122 106 123 201 206 197 182 174 165 157 166 172 168 172 172 172 172 170 173 176 176 175 173 175 174 172 172 170 168 166 166 167 163 166 166 161 164 164 163 170 169 163 161 162 155 146 150 149 138 139 143 141 142 140 140 149 153 146 143 142 141 145 135 125 133 135 135 147 133 139 150 121 106 115 118 114 112 111 119 125 114 105 109 107
205 200 220 229 225 215 196 184 157 151 163 167 155 147 119 124 172 222 224 194 192 177 157 164 172 169 175 178 175 174 173 174 175 176 175 174 174 173 171 171 171 170 168 168 168 164 166 167 163 165 163 164 173 172 166 163 162 158 149 154 153 141 145 150 147 147 143 146 157 158 150 145 144 143 150 143 132 136 140 142 149 141 145 140 120 118 118 120 126 110 111 125 118 111 109 114 113
223 208 205 225 232 216 188 171 167 172 170 166 177 162 130 163 176 193 223 216 200 177 158 157 164 173 178 180 181 176 174 176 175 175 176 174 174 173 170 171 172 170 170 169 169 167 166 168 167 165 163 169 176 173 166 163 162 160 155 159 158 150 154 154 152 153 146 155 166 161 153 146 144 143 147 149 140 137 139 147 152 144 144 138 122 120 120 130 132 127 135 120 104 108 115 115 112
270 237 199 218 239 218 164 151 165 197 199 182 169 149 162 196 181 177 200 215 206 172 162 161 164 171 175 184 186 177 177 176 174 175 176 175 174 173 171 172 173 170 171 172 170 171 169 170 172 168 166 173 177 172 166 165 167 164 159 163 163 160 162 157 156 155 150 165 172 158 153 148 145 147 145 146 143 140 143 152 150 140 142 140 124 125 145 140 121 117 122 110 104 119 114 116 116
284 261 201 212 239 208 140 148 165 192 217 220 165 149 173 183 163 180 189 188 191 185 188 180 166 164 173 187 184 175 178 175 173 175 175 177 175 174 174 172 175 173 172 175 173 173 172 171 174 170 169 176 175 172 169 168 172 167 161 165 164 164 167 160 159 157 156 174 177 159 157 156 152 152 148 146 145 140 142 146 145 143 150 150 137 139 142 126 117 119 113 103 111 121 114 133 132
253 254 206 211 228 169 125 149 169 183 194 220 196 166 174 172 163 177 183 178 186 190 189 182 173 168 175 187 176 170 179 175 175 177 175 178 176 174 176 174 178 177 174 177 175 175 174 174 177 174 173 177 176 176 173 171 173 166 161 164 164 166 166 161 162 160 162 176 178 168 165 164 160 156 151 149 145 143 144 142 140 146 150 146 140 138 130 119 117 114 105 125 145 136 120 126 121
235 235 212 210 213 203 172 177 178 188 222 214 209 210 174 168 171 170 177 182 181 181 177 171 180 180 174 186 177 171 181 178 178 180 178 179 177 176 177 176 178 178 177 179 177 178 176 178 183 179 176 178 180 182 175 172 175 169 163 162 160 165 164 161 165 164 163 168 174 179 175 168 163 158 156 151 148 152 150 145 145 149 146 144 144 132 121 116 105 101 114 144 134 104 94 96 98
223 224 228 214 218 226 188 138 176 178 233 223 181 224 187 166 174 166 174 188 177 169 169 162 168 178 170 186 189 179 180 180 181 183 182 180 180 179 177 177 179 178 180 180 179 181 178 181 186 183 180 180 186 187 178 177 182 176 170 166 162 164 164 166 170 169 169 167 172 183 182 172 165 163 163 156 155 161 150 147 153 152 152 143 128 114 115 125 115 119 145 129 99 102 112 91 65
217 221 237 235 234 231 149 125 217 191 214 207 192 232 208 176 185 167 166 182 176 166 167 159 158 176 183 190 199 189 181 184 186 187 185 183 182 181 178 178 180 180 181 181 180 182 180 181 186 187 184 182 188 190 183 184 185 181 178 173 170 170 170 175 174 172 176 171 170 179 180 178 169 165 170 162 160 166 157 157 158 148 157 143 128 139 145 127 114 118 122 104 112 164 144 121 96
224 210 227 241 266 254 187 176 228 239 213 182 195 235 225 188 176 139 149 166 173 173 167 157 155 173 188 194 196 193 190 191 193 190 187 186 184 183 181 181 183 182 182 182 181 182 180 182 187 189 186 184 188 190 188 189 186 184 184 179 178 179 177 180 177 172 177 170 167 174 175 183 175 163 175 176 165 168 164 164 166 151 154 149 131 138 119 90 127 149 159 154 170 181 147 130 114
237 203 206 213 259 272 213 193 223 243 232 148 182 230 241 195 128 103 142 152 163 180 162 155 160 170 185 195 193 193 197 194 192 190 187 188 188 187 184 183 185 183 182 181 181 182 180 184 189 189 188 187 188 190 190 192 189 186 187 182 183 186 183 185 178 172 178 173 169 171 170 185 184 164 178 194 174 174 176 168 173 158 156 175 154 124 116 167 206 198 186 178 169 167 151 143 147
244 186 210 199 208 238 222 222 236 242 244 189 184 213 228 193 140 144 171 155 166 185 167 163 168 171 181 197 196 185 189 194 194 191 189 190 191 190 187 185 185 184 183 182 183 182 180 186 190 188 190 191 191 192 191 193 194 192 191 187 188 188 185 188 182 175 180 178 176 176 170 183 197 174 180 199 185 184 189 175 181 171 162 174 156 132 165 208 223 206 176 174 158 160 164 155 156
183 76 259 221 212 230 227 235 238 238 245 229 195 199 208 189 157 172 166 161 177 177 170 168 168 172 179 189 191 179 183 198 199 193 191 191 190 192 191 188 188 186 185 184 183 183 181 186 191 189 191 193 195 197 194 193 196 199 197 192 192 192 186 186 186 184 187 184 182 184 178 177 191 189 188 199 192 190 196 182 183 182 169 177 173 172 195 213 227 192 166 174 164 163 166 152 142
227 125 211 228 219 229 227 238 241 232 233 227 225 218 202 184 178 169 144 144 165 160 158 153 158 171 174 181 184 177 180 191 192 190 192 190 189 194 193 191 192 189 188 186 184 184 183 185 191 192 192 194 197 200 197 195 197 201 202 198 196 196 192 189 189 191 195 192 186 188 190 181 180 188 192 204 200 191 200 189 183 191 184 193 196 179 181 199 199 169 176 172 147 143 152 148 139
241 189 197 213 201 217 216 222 230 233 227 206 219 232 212 199 195 150 127 116 105 120 133 112 115 147 169 182 178 172 176 183 184 186 190 187 188 194 195 195 197 194 191 188 186 186 185 186 191 193 194 195 198 199 198 198 198 201 204 203 202 199 197 197 196 196 197 197 191 188 195 191 183 185 188 199 202 195 205 195 183 197 198 198 200 177 177 188 174 183 205 185 139 127 130 134 133
227 202 211 210 187 195 205 209 210 223 234 201 205 234 228 187 140 132 125 112 94 64 67 57 45 71 143 185 172 170 178 181 182 186 189 187 189 193 194 196 200 199 194 190 188 189 186 187 192 195 195 196 198 198 199 200 201 203 204 205 207 203 201 203 203 202 199 197 196 193 197 197 192 189 187 192 196 196 208 203 190 200 204 202 199 189 194 190 171 182 216 193 167 161 135 128 132
212 206 211 209 192 193 196 204 206 210 231 220 210 224 214 116 113 132 121 107 95 76 70 58 47 55 96 169 165 169 176 182 186 189 192 192 190 192 194 196 198 198 197 192 190 190 187 188 194 196 195 197 198 197 198 202 204 205 205 206 209 207 203 204 204 204 203 202 199 197 199 201 200 197 193 194 194 194 205 209 200 203 207 208 206 200 203 200 183 188 209 188 184 238 218 190 199
206 216 221 219 209 200 196 204 207 200 210 219 212 210 192 139 133 128 115 108 97 80 72 64 57 57 62 89 143 166 172 182 188 189 193 195 193 194 197 199 198 199 201 196 191 192 189 189 194 195 194 196 199 198 197 200 204 207 208 207 209 210 207 206 205 202 203 207 206 204 202 201 203 204 202 201 198 195 202 211 209 207 208 208 210 208 207 213 205 198 209 191 184 227 236 199 210
195 213 226 229 218 206 214 218 209 202 204 210 208 194 105 126 133 125 116 105 93 83 74 67 60 60 70 77 106 161 171 179 185 188 192 195 194 194 195 199 199 199 201 197 193 193 190 190 196 197 195 196 199 201 199 198 202 207 210 210 210 212 211 209 209 207 204 206 209 210 210 205 201 204 207 208 208 204 204 209 210 210 212 210 211 212 208 216 221 211 216 209 191 221 248 226 210
191 208 217 228 229 225 234 220 205 209 213 199 182 137 96 126 135 123 117 102 90 82 71 68 62 60 76 87 98 135 164 181 191 194 194 195 197 195 194 198 200 199 200 198 194 194 190 191 197 199 199 200 201 202 203 201 202 206 211 212 212 214 215 211 211 212 208 206 208 210 212 213 208 206 206 207 212 213 210 210 210 211 215 215 212 215 214 217 224 220 221 227 211 219 245 250 230
224 206 212 221 225 245 272 240 206 206 214 199 181 172 161 167 158 127 125 106 88 75 63 66 64 61 70 81 91 103 134 175 194 200 200 199 198 198 197 199 201 202 201 200 198 196 194 194 199 202 202 205 205 204 205 205 204 207 211 213 213 215 217 214 209 211 210 208 210 210 209 212 214 212 210 208 213 217 217 213 211 212 216 218 216 217 219 218 222 224 223 230 229 221 232 245 242
256 278 272 238 213 218 251 258 228 206 208 203 186 182 184 188 170 143 132 104 89 77 60 59 60 59 61 65 75 81 86 118 167 199 204 201 195 199 203 202 204 204 201 200 199 196 195 198 204 207 206 208 209 205 205 208 206 207 210 212 214 215 216 215 209 207 209 209 210 212 210 211 213 214 215 214 211 214 220 221 217 216 218 222 223 221 224 223 221 226 227 231 244 243 235 235 242
243 273 268 242 224 215 213 236 245 210 207 211 192 183 180 166 148 134 120 100 93 82 66 59 57 57 56 52 55 59 67 81 69 88 183 191 195 199 200 200 204 208 203 198 199 197 197 201 206 207 206 208 209 205 203 208 207 207 209 210 213 215 216 216 211 208 209 210 211 211 211 212 211 211 215 218 215 212 217 221 220 219 218 222 227 225 227 229 225 228 231 229 237 251 251 241 239
216 227 222 212 223 228 214 221 234 220 214 212 195 180 143 106 115 120 113 107 99 86 80 71 60 60 59 54 50 49 53 64 53 47 97 178 196 195 191 192 197 203 202 196 200 203 202 206 207 205 203 204 206 203 202 206 206 205 208 209 212 215 216 216 213 211 212 211 212 213 211 212 213 212 212 217 221 218 217 219 218 218 217 218 225 225 224 230 231 230 233 232 227 233 242 243 241
227 219 215 210 211 219 219 219 224 231 234 227 206 172 121 93 106 116 111 107 99 95 96 82 68 63 63 60 58 52 50 57 56 49 58 90 160 179 184 190 189 193 196 191 196 203 206 213 213 206 203 202 201 201 199 201 202 203 206 208 210 212 216 217 212 212 214 213 213 215 212 210 212 214 213 214 220 222 221 220 218 218 218 216 222 227 223 225 232 235 234 235 234 235 238 240 241